Regional Weather Roundup
Issued by NWS Raleigh/Durham, NC

Home | Current Version | Previous Version | Text Only | Print | Product List | Glossary On
Versions: 1 2 3 4 5 6 7 8 9 10 11 12 13 14 15 16 17 18 19 20 21 22 23 24 25 26 27 28
000
ASUS42 KRAH 250810
RWRRAH
NORTH CAROLINA WEATHER ROUNDUP
NATIONAL WEATHER SERVICE RALEIGH NC
400 AM EDT SAT OCT 25 2014

NOTE: "FAIR" INDICATES FEW OR NO CLOUDS BELOW 12,000 FEET WITH NO
SIGNIFICANT WEATHER AND/OR OBSTRUCTIONS TO VISIBILITY.

NCZ001-053-055-056-065-067-250900-
WESTERN NORTH CAROLINA

CITY           SKY/WX    TMP DP  RH WIND       PRES   REMARKS
ASHEVILLE      CLEAR     45  38  76 NE3       30.07S
JEFFERSON      CLEAR     47  32  56 CALM      30.04F
MORGANTON      CLEAR     35  35 100 CALM      30.06F
HICKORY        CLEAR     45  41  86 NW8       30.01S
RUTHERFORDTON  CLEAR     41  39  91 NW5       30.02F
MOUNT AIRY     CLEAR     47  35  62 CALM      30.03S
BOONE          NOT AVBL
$$

NCZ021-022-025-041-071-084-088-250900-
CENTRAL NORTH CAROLINA

CITY           SKY/WX    TMP DP  RH WIND       PRES   REMARKS
CHARLOTTE      CLEAR     47  42  83 N7        30.01S
GREENSBORO     CLEAR     44  40  85 CALM      29.98F
WINSTON-SALEM  CLEAR     48  33  56 NW7       30.00F
RALEIGH-DURHAM PTCLDY    42  40  92 CALM      29.97F
FORT BRAGG     CLEAR     46  44  93 CALM      29.96F
FAYETTEVILLE   CLEAR     47  45  93 CALM      29.96F
BURLINGTON     CLEAR     44  39  82 W5        29.98F
LAURINBURG     CLEAR     41  40  96 W3        29.99R FOG
$$

NCZ011-015-027-028-043-044-047-080-103-250900-
NORTHEASTERN NORTH CAROLINA

CITY           SKY/WX    TMP DP  RH WIND       PRES   REMARKS
ROCKY MT-WILSO CLEAR     44  43  96 CALM      29.96S FOG
GREENVILLE     LGT RAIN  45  45 100 CALM      29.98S VSB 3/4
WASHINGTON     CLEAR     45  44  97 CALM      29.95F
ELIZABETH CITY CLEAR     53  46  77 NW9       29.95S
MANTEO         CLEAR     49  48  97 CALM      29.94F
CAPE HATTERAS  CLEAR     50  50 100 N3        29.94F
$$

NCZ078-087-090-091-093-098-101-250900-
SOUTHEASTERN NORTH CAROLINA

CITY           SKY/WX    TMP DP  RH WIND       PRES   REMARKS
LUMBERTON      CLEAR     42  40  92 CALM      29.97F FOG
GOLDSBORO      FOG       46  46 100 CALM      29.95S VSB 1/2
KINSTON        CLEAR     44  43  97 CALM      29.96F
KENANSVILLE    CLEAR     42  42  99 CALM      29.98S
NEW BERN       CLEAR     48  45  89 S3        29.97F
CHERRY POINT   CLEAR     48  45  89 CALM      29.96F
BEAUFORT       CLEAR     54  50  86 NW6       29.96F
JACKSONVILLE   CLEAR     48  46  93 CALM      29.96F
WILMINGTON     CLEAR     49  47  93 CALM      29.96F
$$




USA.gov is the U.S. government's official web portal to all federal, state and local government web resources and services.